Regional Weather Roundup
Issued by NWS

Home | Current Version | Previous Version | Text Only | Print | Product List | Glossary Off
Versions: 1 2 3 4 5 6 7 8 9 10 11 12 13 14 15 16 17 18 19 20 21 22 23 24 25 26 27 28 29 30 31 32 33 34 35 36 37 38 39 40 41 42 43 44 45 46 47 48 49 50

000
ASUS43 KLMK 011310
RWRKY
KENTUCKY REGIONAL WEATHER ROUNDUP
NATIONAL WEATHER SERVICE LOUISVILLE KY
900 AM EDT WED JUL 01 2015

NOTE "FAIR" INDICATES FEW OR NO CLOUDS BELOW 12,000 FEET
WITH NO SIGNIFICANT WEATHER AND/OR OBSTRUCTIONS TO VISIBILITY.

KYZ001>023-026-027-061>063-070>075-011400-
WESTERN AND SOUTH CENTRAL KENTUCKY

CITY           SKY/WX    TMP DP  RH WIND       PRES   REMARKS
PADUCAH        LGT RAIN  73  71  93 SW5       29.94R FOG
HENDERSON      CLOUDY    72  68  88 SW6       29.92R
OWENSBORO      PTSUNNY   72  71  96 SW5       29.94R FOG
HOPKINSVILLE   CLOUDY    74  71  87 W8        29.95R
BOWLING GREEN  PTSUNNY   76  70  82 W9        29.96R
GLASGOW        PTSUNNY   73  72  98 SW5       29.96F
$$

KYZ024-025-028>034-038-045-046-053-011400-
NORTH CENTRAL KENTUCKY

CITY           SKY/WX    TMP DP  RH WIND       PRES   REMARKS
LOUISVILLE/SDF CLOUDY    74  67  78 S3        29.92R
LOUISVILLE/LOU MOSUNNY   73  67  81 CALM      29.93R HAZE
FORT KNOX      PTSUNNY   69  68  96 SW5       29.93R
$$

KYZ035>037-039>044-047>052-055>060-089>105-011400-
NORTHEAST KENTUCKY

CITY           SKY/WX    TMP DP  RH WIND       PRES   REMARKS
LEXINGTON      MOSUNNY   70  68  93 SW9       29.95R FOG
COVINGTON      MOSUNNY   66  63  90 N5        29.94R
FRANKFORT      MOSUNNY   70  67  90 W5        29.95R FOG
$$

KYZ054-064>069-076>088-106>120-011400-
SOUTHEAST KENTUCKY

CITY           SKY/WX    TMP DP  RH WIND       PRES   REMARKS
JACKSON        CLOUDY    66  64  93 SW3       29.98R FOG
LONDON         CLOUDY    73  66  78 SW6       29.99R
SOMERSET       CLOUDY    72  70  94 W5        29.99R FOG
MIDDLESBORO    CLOUDY    68  67  98 CALM      30.01R
MONTICELLO     CLOUDY    74  74 100 CALM      30.02R
$$




USA.gov is the U.S. government's official web portal to all federal, state and local government web resources and services.